Preview of NWS' New Version of Forecast
This preview is not operational and should not be used for support decisions.

Regional Weather Roundup (RWR)

Issued by National Weather Service (NWS)

                            
000
ASUS43 KLMK 200910
RWRKY 
KENTUCKY REGIONAL WEATHER ROUNDUP
NATIONAL WEATHER SERVICE LOUISVILLE KY
400 AM EST WED FEB 20 2019

NOTE "FAIR" INDICATES FEW OR NO CLOUDS BELOW 12,000 FEET
WITH NO SIGNIFICANT WEATHER AND/OR OBSTRUCTIONS TO VISIBILITY.

KYZ001>023-026-027-061>063-070>075-201000-
WESTERN AND SOUTH CENTRAL KENTUCKY
  
CITY           SKY/WX    TMP DP  RH WIND       PRES   REMARKS
PADUCAH        RAIN      42  39  89 SE16G23   29.87F FOG              
HENDERSON      LGT SNOW  37  37 100 SE13G18   29.94F FOG     WCI  29  
OWENSBORO      LGT SNOW  38  37  97 E10       30.01R FOG     WCI  31  
HOPKINSVILLE   TSTM      41  41 100 N14       29.93R FOG              
BOWLING GREEN  LGT RAIN  40  38  93 NE7       29.93F                  
GLASGOW        RAIN      39  39  99 E8        29.94F WCI  34          
$$

KYZ024-025-028>034-038-045-046-053-201000-
NORTH CENTRAL KENTUCKY
  
CITY           SKY/WX    TMP DP  RH WIND       PRES   REMARKS
LOUISVILLE/SDF HVY RAIN  35  32  88 NE8       30.04F FOG     WCI  29  
LOUISVILLE/LOU HVY RAIN  33  32  96 NE8       30.03F FOG     WCI  26  
FORT KNOX      LGT RAIN  34  34 100 NE12G20   29.98F WCI  25          
$$

KYZ035>037-039>044-047>052-055>060-089>105-201000-
NORTHEAST KENTUCKY
  
CITY           SKY/WX    TMP DP  RH WIND       PRES   REMARKS
LEXINGTON      RAIN      34  31  88 E13       30.04F FOG     WCI  25  
COVINGTON      FRZ RAIN  32  30  92 E14       30.09F FOG     WCI  22  
FRANKFORT      RAIN      35  33  92 E14       30.02F FOG     WCI  26  
$$

KYZ054-064>069-076>088-106>120-201000-
SOUTHEAST KENTUCKY
  
CITY           SKY/WX    TMP DP  RH WIND       PRES   REMARKS
JACKSON        RAIN      38  37  97 VRB6      30.02F FOG     WCI  33  
LONDON         LGT RAIN  39  32  76 E7        30.01F WCI  34          
SOMERSET       NOT AVBL                                               
MIDDLESBORO    DRIZZLE   44  40  88 S6G21     30.08F                  
MONTICELLO     RAIN      41  39  93 VRB6      29.99F                  
$$